contact:dominique.lefevre@mio.osupytheas.fr, maurice.libes@osupytheas.fr, didier.mallarino@osupytheas.fr
Project:EMSO http://www.emso-fr.org/EMSO-France
Depth: 2436.0 m
Title:EMSO Ligure Ouest : Data MII capteur CSTAR
DateTime,Latitude,Longitude,Instrument_Serial,Reference_Counts,Signal_Counts,Corrected_Signal_raw_counts,Calculated_Beam_c_inverse_meters,Internal_thermistor_counts
DateTime,Latitude,Longitude,Instrument_Serial,Reference_Counts,Signal_Counts,Corrected_Signal_raw_counts,Calculated_Beam_c_inverse_meters,Internal_thermistor_counts
2024-05-04T00:00:30,42.805,6.029,CST-1368DR,4094,4221,10925,01.429,553
2024-05-04T00:03:32,42.805,6.029,CST-1368DR,4094,4227,10939,01.424,553
2024-05-04T00:06:33,42.805,6.029,CST-1368DR,4094,4224,10932,01.426,553
2024-05-04T00:09:35,42.805,6.029,CST-1368DR,4094,4225,10934,01.426,553
2024-05-04T00:12:36,42.805,6.029,CST-1368DR,4094,4229,10945,01.422,553
2024-05-04T00:15:38,42.805,6.029,CST-1368DR,4094,4221,10925,01.429,553
2024-05-04T00:18:39,42.805,6.029,CST-1368DR,4094,4222,10928,01.428,553
2024-05-04T00:21:41,42.805,6.029,CST-1368DR,4094,4229,10945,01.422,553
2024-05-04T00:24:43,42.805,6.029,CST-1368DR,4094,4230,10947,01.421,553
2024-05-04T00:27:44,42.805,6.029,CST-1368DR,4094,4225,10935,01.425,553
2024-05-04T00:30:46,42.805,6.029,CST-1368DR,4094,4223,10928,01.428,553
2024-05-04T00:33:47,42.805,6.029,CST-1368DR,4094,4223,10929,01.428,553
2024-05-04T00:36:49,42.805,6.029,CST-1368DR,4094,4226,10938,01.424,553
2024-05-04T00:39:50,42.805,6.029,CST-1368DR,4093,4222,10929,01.428,553
2024-05-04T00:42:52,42.805,6.029,CST-1368DR,4093,4227,10941,01.423,553
2024-05-04T00:45:54,42.805,6.029,CST-1368DR,4093,4226,10941,01.423,553
2024-05-04T00:48:55,42.805,6.029,CST-1368DR,4093,4226,10939,01.424,553
2024-05-04T00:51:57,42.805,6.029,CST-1368DR,4093,4229,10947,01.421,553
2024-05-04T00:54:58,42.805,6.029,CST-1368DR,4093,4224,10936,01.425,553
2024-05-04T00:58:00,42.805,6.029,CST-1368DR,4093,4222,10930,01.427,553
2024-05-04T01:01:02,42.805,6.029,CST-1368DR,4093,4223,10931,01.427,553
2024-05-04T01:04:03,42.805,6.029,CST-1368DR,4093,4223,10932,01.426,553
2024-05-04T01:07:05,42.805,6.029,CST-1368DR,4093,4226,10939,01.424,553
2024-05-04T01:10:06,42.805,6.029,CST-1368DR,4093,4220,10925,01.429,553
2024-05-04T01:13:08,42.805,6.029,CST-1368DR,4093,4228,10944,01.422,553
2024-05-04T01:16:09,42.805,6.029,CST-1368DR,4093,4226,10939,01.424,553
2024-05-04T01:19:11,42.805,6.029,CST-1368DR,4093,4226,10939,01.424,553
2024-05-04T01:22:13,42.805,6.029,CST-1368DR,4093,4225,10936,01.425,553
2024-05-04T01:25:14,42.805,6.029,CST-1368DR,4093,4227,10942,01.423,553
2024-05-04T01:28:16,42.805,6.029,CST-1368DR,4093,4224,10934,01.426,553
2024-05-04T01:31:17,42.805,6.029,CST-1368DR,4093,4229,10947,01.421,553
2024-05-04T01:34:19,42.805,6.029,CST-1368DR,4093,4230,10951,01.419,553
2024-05-04T01:37:20,42.805,6.029,CST-1368DR,4093,4224,10936,01.425,553
2024-05-04T01:40:22,42.805,6.029,CST-1368DR,4093,4223,10932,01.426,553
2024-05-04T01:43:24,42.805,6.029,CST-1368DR,4093,4224,10935,01.425,553
2024-05-04T01:46:25,42.805,6.029,CST-1368DR,4093,4225,10938,01.424,553
2024-05-04T01:49:27,42.805,6.029,CST-1368DR,4093,4228,10945,01.422,553
2024-05-04T01:52:28,42.805,6.029,CST-1368DR,4093,4227,10941,01.423,553
2024-05-04T01:55:30,42.805,6.029,CST-1368DR,4093,4223,10933,01.426,553
2024-05-04T01:58:32,42.805,6.029,CST-1368DR,4093,4222,10930,01.427,553
2024-05-04T02:01:36,42.805,6.029,CST-1368DR,4093,4228,10945,01.422,553
2024-05-04T02:04:37,42.805,6.029,CST-1368DR,4093,4224,10934,01.426,553
2024-05-04T02:07:39,42.805,6.029,CST-1368DR,4093,4222,10930,01.427,553
2024-05-04T02:10:41,42.805,6.029,CST-1368DR,4093,4222,10930,01.427,553
2024-05-04T02:13:42,42.805,6.029,CST-1368DR,4093,4225,10938,01.424,553
2024-05-04T02:16:44,42.805,6.029,CST-1368DR,4093,4220,10925,01.429,553
2024-05-04T02:19:45,42.805,6.029,CST-1368DR,4093,4221,10927,01.428,553
2024-05-04T02:22:47,42.805,6.029,CST-1368DR,4093,4221,10927,01.428,553
2024-05-04T02:25:48,42.805,6.029,CST-1368DR,4093,4220,10925,01.429,553
2024-05-04T02:28:50,42.805,6.029,CST-1368DR,4093,4222,10929,01.428,553
2024-05-04T02:31:52,42.805,6.029,CST-1368DR,4093,4222,10930,01.427,553
2024-05-04T02:34:53,42.805,6.029,CST-1368DR,4093,4221,10928,01.428,553
2024-05-04T02:37:55,42.805,6.029,CST-1368DR,4093,4225,10936,01.425,553
2024-05-04T02:40:56,42.805,6.029,CST-1368DR,4093,4223,10933,01.426,553
2024-05-04T02:43:58,42.805,6.029,CST-1368DR,4093,4224,10934,01.426,553
2024-05-04T02:46:59,42.805,6.029,CST-1368DR,4093,4218,10920,01.431,553
2024-05-04T02:50:01,42.805,6.029,CST-1368DR,4093,4220,10924,01.429,553
2024-05-04T02:53:03,42.805,6.029,CST-1368DR,4092,4221,10930,01.427,553
2024-05-04T02:56:04,42.805,6.029,CST-1368DR,4093,4222,10930,01.427,553
2024-05-04T02:59:06,42.805,6.029,CST-1368DR,4092,4223,10934,01.426,553
2024-05-04T03:02:07,42.805,6.029,CST-1368DR,4092,4223,10934,01.426,553
2024-05-04T03:05:09,42.805,6.029,CST-1368DR,4092,4222,10932,01.426,553
2024-05-04T03:08:11,42.805,6.029,CST-1368DR,4092,4218,10921,01.430,553
2024-05-04T03:11:12,42.805,6.029,CST-1368DR,4092,4219,10924,01.429,553
2024-05-04T03:14:14,42.805,6.029,CST-1368DR,4092,4220,10927,01.428,553
2024-05-04T03:17:15,42.805,6.029,CST-1368DR,4092,4224,10937,01.425,553
2024-05-04T03:20:17,42.805,6.029,CST-1368DR,4092,4220,10927,01.428,553
2024-05-04T03:23:18,42.805,6.029,CST-1368DR,4092,4224,10936,01.425,553
2024-05-04T03:26:20,42.805,6.029,CST-1368DR,4092,4222,10932,01.426,553
2024-05-04T03:29:22,42.805,6.029,CST-1368DR,4092,4219,10925,01.429,553
2024-05-04T03:32:23,42.805,6.029,CST-1368DR,4092,4224,10936,01.425,553
2024-05-04T03:35:25,42.805,6.029,CST-1368DR,4092,4221,10928,01.428,553
2024-05-04T03:38:26,42.805,6.029,CST-1368DR,4092,4222,10932,01.426,553
2024-05-04T03:41:28,42.805,6.029,CST-1368DR,4092,4226,10943,01.422,553
2024-05-04T03:44:30,42.805,6.029,CST-1368DR,4092,4223,10934,01.426,553
2024-05-04T03:47:31,42.805,6.029,CST-1368DR,4092,4219,10924,01.429,553
2024-05-04T03:50:33,42.805,6.029,CST-1368DR,4092,4222,10933,01.426,553
2024-05-04T03:53:34,42.805,6.029,CST-1368DR,4092,4216,10916,01.432,553
2024-05-04T03:56:36,42.805,6.029,CST-1368DR,4092,4226,10943,01.422,553
2024-05-04T03:59:37,42.805,6.029,CST-1368DR,4092,4226,10943,01.422,553
2024-05-04T04:02:39,42.805,6.029,CST-1368DR,4092,4220,10928,01.428,553
2024-05-04T04:05:41,42.805,6.029,CST-1368DR,4092,4216,10916,01.432,553
2024-05-04T04:08:42,42.805,6.029,CST-1368DR,4092,4218,10921,01.430,553
2024-05-04T04:11:44,42.805,6.029,CST-1368DR,4092,4220,10927,01.428,553
2024-05-04T04:14:45,42.805,6.029,CST-1368DR,4092,4223,10936,01.425,553
2024-05-04T04:17:47,42.805,6.029,CST-1368DR,4092,4225,10940,01.423,553
2024-05-04T04:20:48,42.805,6.029,CST-1368DR,4092,4218,10921,01.430,553
2024-05-04T04:23:50,42.805,6.029,CST-1368DR,4092,4216,10917,01.432,553
2024-05-04T04:26:52,42.805,6.029,CST-1368DR,4092,4225,10940,01.423,553
2024-05-04T04:29:53,42.805,6.029,CST-1368DR,4092,4223,10934,01.426,553
2024-05-04T04:32:55,42.805,6.029,CST-1368DR,4092,4226,10941,01.423,553
2024-05-04T04:35:56,42.805,6.029,CST-1368DR,4092,4225,10940,01.423,553
2024-05-04T04:38:58,42.805,6.029,CST-1368DR,4092,4221,10930,01.427,553
2024-05-04T04:41:59,42.805,6.029,CST-1368DR,4092,4222,10932,01.426,553
2024-05-04T04:45:01,42.805,6.029,CST-1368DR,4092,4220,10927,01.428,553
2024-05-04T04:48:03,42.805,6.029,CST-1368DR,4092,4224,10938,01.424,553
2024-05-04T04:51:04,42.805,6.029,CST-1368DR,4092,4222,10932,01.426,553
2024-05-04T04:54:06,42.805,6.029,CST-1368DR,4092,4218,10923,01.430,553
2024-05-04T04:57:07,42.805,6.029,CST-1368DR,4092,4226,10943,01.422,553
2024-05-04T05:00:09,42.805,6.029,CST-1368DR,4092,4224,10936,01.425,553
2024-05-04T05:03:11,42.805,6.029,CST-1368DR,4092,4221,10929,01.428,553
2024-05-04T05:06:12,42.805,6.029,CST-1368DR,4092,4220,10926,01.429,553
2024-05-04T05:09:14,42.805,6.029,CST-1368DR,4092,4220,10928,01.428,553
2024-05-04T05:12:15,42.805,6.029,CST-1368DR,4092,4220,10926,01.429,553
2024-05-04T05:15:17,42.805,6.029,CST-1368DR,4092,4218,10921,01.430,553
2024-05-04T05:18:18,42.805,6.029,CST-1368DR,4092,4218,10921,01.430,553
2024-05-04T05:21:20,42.805,6.029,CST-1368DR,4092,4212,10906,01.436,553
2024-05-04T05:24:22,42.805,6.029,CST-1368DR,4092,4218,10921,01.430,553
2024-05-04T05:27:23,42.805,6.029,CST-1368DR,4092,4219,10924,01.429,553
2024-05-04T05:30:25,42.805,6.029,CST-1368DR,4092,4219,10923,01.430,553
2024-05-04T05:33:26,42.805,6.029,CST-1368DR,4092,4220,10926,01.429,553
2024-05-04T05:36:28,42.805,6.029,CST-1368DR,4092,4218,10921,01.430,553
2024-05-04T05:39:30,42.805,6.029,CST-1368DR,4091,4221,10931,01.427,553
2024-05-04T05:42:31,42.805,6.029,CST-1368DR,4092,4220,10927,01.428,553
2024-05-04T05:45:33,42.805,6.029,CST-1368DR,4091,4219,10926,01.429,553
2024-05-04T05:48:34,42.805,6.029,CST-1368DR,4091,4219,10928,01.428,553
2024-05-04T05:51:36,42.805,6.029,CST-1368DR,4091,4218,10925,01.429,553
2024-05-04T05:54:37,42.805,6.029,CST-1368DR,4091,4220,10928,01.428,553
2024-05-04T05:57:39,42.805,6.029,CST-1368DR,4091,4220,10930,01.427,553
2024-05-04T06:00:43,42.805,6.029,CST-1368DR,4091,4220,10930,01.427,553
2024-05-04T06:03:45,42.805,6.029,CST-1368DR,4091,4220,10928,01.428,553
2024-05-04T06:06:46,42.805,6.029,CST-1368DR,4091,4219,10926,01.429,553
2024-05-04T06:09:48,42.805,6.029,CST-1368DR,4091,4217,10923,01.430,553
2024-05-04T06:12:49,42.805,6.029,CST-1368DR,4091,4219,10926,01.429,553
2024-05-04T06:15:51,42.805,6.029,CST-1368DR,4091,4225,10943,01.422,553
2024-05-04T06:18:52,42.805,6.029,CST-1368DR,4091,4220,10930,01.427,553
2024-05-04T06:21:54,42.805,6.029,CST-1368DR,4091,4220,10930,01.427,553
2024-05-04T06:24:56,42.805,6.029,CST-1368DR,4091,4220,10929,01.428,553
2024-05-04T06:27:57,42.805,6.029,CST-1368DR,4091,4218,10924,01.429,553
2024-05-04T06:30:59,42.805,6.029,CST-1368DR,4091,4216,10919,01.431,553
2024-05-04T06:34:00,42.805,6.029,CST-1368DR,4091,4220,10930,01.427,553
2024-05-04T06:37:02,42.805,6.029,CST-1368DR,4091,4217,10922,01.430,553
2024-05-04T06:40:04,42.805,6.029,CST-1368DR,4091,4217,10921,01.430,553
2024-05-04T06:43:05,42.805,6.029,CST-1368DR,4091,4216,10918,01.432,553
2024-05-04T06:46:07,42.805,6.029,CST-1368DR,4091,4217,10922,01.430,553
2024-05-04T06:49:08,42.805,6.029,CST-1368DR,4091,4212,10908,01.435,553
2024-05-04T06:52:10,42.805,6.029,CST-1368DR,4091,4215,10915,01.433,553
2024-05-04T06:55:11,42.805,6.029,CST-1368DR,4091,4216,10919,01.431,553
2024-05-04T06:58:13,42.805,6.029,CST-1368DR,4091,4219,10926,01.429,553
2024-05-04T07:01:15,42.805,6.029,CST-1368DR,4091,4218,10923,01.430,553
2024-05-04T07:04:16,42.805,6.029,CST-1368DR,4091,4220,10928,01.428,553
2024-05-04T07:07:18,42.805,6.029,CST-1368DR,4091,4217,10922,01.430,553
2024-05-04T07:10:19,42.805,6.029,CST-1368DR,4091,4214,10914,01.433,553
2024-05-04T07:13:21,42.805,6.029,CST-1368DR,4091,4219,10928,01.428,553
2024-05-04T07:16:22,42.805,6.029,CST-1368DR,4091,4220,10928,01.428,553
2024-05-04T07:19:24,42.805,6.029,CST-1368DR,4091,4218,10925,01.429,553
2024-05-04T07:22:26,42.805,6.029,CST-1368DR,4091,4221,10931,01.427,553
2024-05-04T07:25:27,42.805,6.029,CST-1368DR,4091,4220,10930,01.427,553
2024-05-04T07:28:29,42.805,6.029,CST-1368DR,4091,4222,10934,01.426,553
2024-05-04T07:31:30,42.805,6.029,CST-1368DR,4091,4221,10932,01.426,553
2024-05-04T07:34:32,42.805,6.029,CST-1368DR,4091,4221,10931,01.427,553
2024-05-04T07:37:34,42.805,6.029,CST-1368DR,4091,4214,10915,01.433,553
2024-05-04T07:40:35,42.805,6.029,CST-1368DR,4091,4218,10924,01.429,553
2024-05-04T07:43:37,42.805,6.029,CST-1368DR,4091,4216,10920,01.431,553
2024-05-04T07:46:38,42.805,6.029,CST-1368DR,4091,4219,10927,01.428,553
2024-05-04T07:49:40,42.805,6.029,CST-1368DR,4091,4219,10926,01.429,553
2024-05-04T07:52:41,42.805,6.029,CST-1368DR,4091,4220,10930,01.427,553
2024-05-04T07:55:43,42.805,6.029,CST-1368DR,4091,4215,10917,01.432,553
2024-05-04T07:58:45,42.805,6.029,CST-1368DR,4091,4221,10932,01.426,553
2024-05-04T08:01:48,42.805,6.029,CST-1368DR,4091,4218,10923,01.430,553
2024-05-04T08:04:50,42.805,6.029,CST-1368DR,4091,4220,10928,01.428,553
2024-05-04T08:07:51,42.805,6.029,CST-1368DR,4091,4219,10926,01.429,553
2024-05-04T08:10:53,42.805,6.029,CST-1368DR,4091,4218,10923,01.430,553
2024-05-04T08:13:55,42.805,6.029,CST-1368DR,4091,4219,10926,01.429,553
2024-05-04T08:16:56,42.805,6.029,CST-1368DR,4091,4219,10927,01.428,553
2024-05-04T08:19:58,42.805,6.029,CST-1368DR,4091,4216,10918,01.432,553
2024-05-04T08:22:59,42.805,6.029,CST-1368DR,4091,4219,10926,01.429,553
2024-05-04T08:26:01,42.805,6.029,CST-1368DR,4091,4218,10923,01.430,553
2024-05-04T08:29:02,42.805,6.029,CST-1368DR,4091,4219,10928,01.428,553
2024-05-04T08:32:04,42.805,6.029,CST-1368DR,4091,4217,10922,01.430,553
2024-05-04T08:35:06,42.805,6.029,CST-1368DR,4091,4220,10928,01.428,553
2024-05-04T08:38:07,42.805,6.029,CST-1368DR,4091,4218,10925,01.429,553
2024-05-04T08:41:09,42.805,6.029,CST-1368DR,4091,4219,10927,01.428,553
2024-05-04T08:44:10,42.805,6.029,CST-1368DR,4091,4221,10931,01.427,553
2024-05-04T08:47:12,42.805,6.029,CST-1368DR,4091,4219,10926,01.429,553
2024-05-04T08:50:14,42.805,6.029,CST-1368DR,4091,4212,10908,01.435,553
2024-05-04T08:53:15,42.805,6.029,CST-1368DR,4091,4221,10932,01.426,553
2024-05-04T08:56:17,42.805,6.029,CST-1368DR,4091,4220,10929,01.428,553
2024-05-04T08:59:18,42.805,6.029,CST-1368DR,4091,4219,10926,01.429,553
2024-05-04T09:02:20,42.805,6.029,CST-1368DR,4091,4217,10923,01.430,553
2024-05-04T09:05:21,42.805,6.029,CST-1368DR,4091,4218,10924,01.429,553
2024-05-04T09:08:23,42.805,6.029,CST-1368DR,4091,4219,10927,01.428,553
2024-05-04T09:11:25,42.805,6.029,CST-1368DR,4091,4217,10923,01.430,553
2024-05-04T09:14:26,42.805,6.029,CST-1368DR,4090,4218,10928,01.428,553
2024-05-04T09:17:28,42.805,6.029,CST-1368DR,4091,4218,10924,01.429,553
2024-05-04T09:20:29,42.805,6.029,CST-1368DR,4090,4213,10915,01.433,553
2024-05-04T09:23:31,42.805,6.029,CST-1368DR,4090,4219,10928,01.428,553
2024-05-04T09:26:32,42.805,6.029,CST-1368DR,4090,4219,10929,01.428,553
2024-05-04T09:29:34,42.805,6.029,CST-1368DR,4090,4216,10923,01.430,553
2024-05-04T09:32:36,42.805,6.029,CST-1368DR,4090,4219,10930,01.427,553
2024-05-04T09:35:37,42.805,6.029,CST-1368DR,4090,4217,10925,01.429,553
2024-05-04T09:38:39,42.805,6.029,CST-1368DR,4090,4218,10928,01.428,553
2024-05-04T09:41:40,42.805,6.029,CST-1368DR,4090,4220,10931,01.427,553
2024-05-04T09:44:42,42.805,6.029,CST-1368DR,4090,4217,10923,01.430,553
2024-05-04T09:47:43,42.805,6.029,CST-1368DR,4090,4217,10925,01.429,553
2024-05-04T09:50:45,42.805,6.029,CST-1368DR,4090,4221,10934,01.426,553
2024-05-04T09:53:47,42.805,6.029,CST-1368DR,4090,4214,10916,01.432,553
2024-05-04T09:56:48,42.805,6.029,CST-1368DR,4090,4218,10926,01.429,553
2024-05-04T09:59:50,42.805,6.029,CST-1368DR,4090,4216,10921,01.430,553
2024-05-04T10:02:51,42.805,6.029,CST-1368DR,4090,4218,10926,01.429,553
2024-05-04T10:05:53,42.805,6.029,CST-1368DR,4090,4217,10924,01.429,553
2024-05-04T10:08:55,42.805,6.029,CST-1368DR,4090,4219,10930,01.427,553
2024-05-04T10:11:56,42.805,6.029,CST-1368DR,4090,4219,10929,01.428,553
2024-05-04T10:14:58,42.805,6.029,CST-1368DR,4090,4221,10934,01.426,553
2024-05-04T10:17:59,42.805,6.029,CST-1368DR,4090,4223,10939,01.424,553
2024-05-04T10:21:01,42.805,6.029,CST-1368DR,4090,4220,10931,01.427,553
2024-05-04T10:24:02,42.805,6.029,CST-1368DR,4090,4214,10915,01.433,553
2024-05-04T10:27:04,42.805,6.029,CST-1368DR,4090,4216,10922,01.430,553
2024-05-04T10:30:06,42.805,6.029,CST-1368DR,4090,4217,10924,01.429,553
2024-05-04T10:33:07,42.805,6.029,CST-1368DR,4090,4217,10923,01.430,553
2024-05-04T10:36:09,42.805,6.029,CST-1368DR,4090,4219,10930,01.427,553
2024-05-04T10:39:10,42.805,6.029,CST-1368DR,4090,4218,10926,01.429,553
2024-05-04T10:42:12,42.805,6.029,CST-1368DR,4090,4217,10925,01.429,553
2024-05-04T10:45:13,42.805,6.029,CST-1368DR,4090,4213,10913,01.433,553
2024-05-04T10:48:15,42.805,6.029,CST-1368DR,4090,4217,10923,01.430,553
2024-05-04T10:51:17,42.805,6.029,CST-1368DR,4090,4220,10933,01.426,553
2024-05-04T10:54:18,42.805,6.029,CST-1368DR,4090,4219,10930,01.427,553
2024-05-04T10:57:20,42.805,6.029,CST-1368DR,4090,4213,10913,01.433,553
2024-05-04T11:00:21,42.805,6.029,CST-1368DR,4090,4221,10934,01.426,553
2024-05-04T11:03:23,42.805,6.029,CST-1368DR,4090,4217,10923,01.430,553
2024-05-04T11:06:25,42.805,6.029,CST-1368DR,4090,4216,10923,01.430,553
2024-05-04T11:09:26,42.805,6.029,CST-1368DR,4090,4219,10928,01.428,553
2024-05-04T11:12:28,42.805,6.029,CST-1368DR,4090,4206,10895,01.440,553
2024-05-04T11:15:29,42.805,6.029,CST-1368DR,4090,4217,10923,01.430,553
2024-05-04T11:18:31,42.805,6.029,CST-1368DR,4090,4217,10924,01.429,553
2024-05-04T11:21:32,42.805,6.029,CST-1368DR,4090,4219,10930,01.427,553
2024-05-04T11:24:34,42.805,6.029,CST-1368DR,4090,4213,10914,01.433,553
2024-05-04T11:27:36,42.805,6.029,CST-1368DR,4090,4214,10917,01.432,553
2024-05-04T11:30:37,42.805,6.029,CST-1368DR,4090,4216,10923,01.430,553
2024-05-04T11:33:39,42.805,6.029,CST-1368DR,4090,4217,10925,01.429,553
2024-05-04T11:36:40,42.805,6.029,CST-1368DR,4090,4223,10940,01.423,553
2024-05-04T11:39:42,42.805,6.029,CST-1368DR,4090,4216,10921,01.430,553
2024-05-04T11:42:43,42.805,6.029,CST-1368DR,4090,4217,10923,01.430,553
2024-05-04T11:45:45,42.805,6.029,CST-1368DR,4090,4217,10925,01.429,553
2024-05-04T11:48:47,42.805,6.029,CST-1368DR,4090,4218,10926,01.429,553
2024-05-04T11:51:48,42.805,6.029,CST-1368DR,4090,4216,10923,01.430,553
2024-05-04T11:54:50,42.805,6.029,CST-1368DR,4090,4215,10919,01.431,553
2024-05-04T11:57:51,42.805,6.029,CST-1368DR,4090,4221,10935,01.425,553
2024-05-04T12:00:54,42.805,6.029,CST-1368DR,4090,4218,10926,01.429,553
2024-05-04T12:03:56,42.805,6.029,CST-1368DR,4090,4218,10926,01.429,553
2024-05-04T12:06:57,42.805,6.029,CST-1368DR,4090,4225,10946,01.421,553
2024-05-04T12:09:59,42.805,6.029,CST-1368DR,4090,4221,10934,01.426,553
2024-05-04T12:13:00,42.805,6.029,CST-1368DR,4090,4220,10932,01.426,553
2024-05-04T12:16:02,42.805,6.029,CST-1368DR,4090,4219,10929,01.428,553
2024-05-04T12:19:04,42.805,6.029,CST-1368DR,4090,4221,10934,01.426,553
2024-05-04T12:22:05,42.805,6.029,CST-1368DR,4090,4220,10932,01.426,553
2024-05-04T12:25:07,42.805,6.029,CST-1368DR,4090,4222,10938,01.424,553
2024-05-04T12:28:08,42.805,6.029,CST-1368DR,4090,4223,10940,01.423,553
2024-05-04T12:31:10,42.805,6.029,CST-1368DR,4090,4221,10935,01.425,553
2024-05-04T12:34:12,42.805,6.029,CST-1368DR,4090,4222,10938,01.424,553
2024-05-04T12:37:13,42.805,6.029,CST-1368DR,4090,4222,10938,01.424,553
2024-05-04T12:40:15,42.805,6.029,CST-1368DR,4090,4223,10939,01.424,553
2024-05-04T12:43:16,42.805,6.029,CST-1368DR,4090,4222,10938,01.424,553
2024-05-04T12:46:18,42.805,6.029,CST-1368DR,4090,4224,10941,01.423,553
2024-05-04T12:49:19,42.805,6.029,CST-1368DR,4090,4223,10939,01.424,553
2024-05-04T12:52:21,42.805,6.029,CST-1368DR,4090,4223,10939,01.424,553
2024-05-04T12:55:23,42.805,6.029,CST-1368DR,4090,4223,10939,01.424,553
2024-05-04T12:58:24,42.805,6.029,CST-1368DR,4090,4222,10937,01.425,553
2024-05-04T13:01:26,42.805,6.029,CST-1368DR,4090,4223,10939,01.424,553
2024-05-04T13:04:27,42.805,6.029,CST-1368DR,4090,4223,10940,01.423,553
2024-05-04T13:07:29,42.805,6.029,CST-1368DR,4090,4223,10939,01.424,553
2024-05-04T13:10:30,42.805,6.029,CST-1368DR,4090,4221,10935,01.425,553
2024-05-04T13:13:32,42.805,6.029,CST-1368DR,4090,4223,10941,01.423,553
2024-05-04T13:16:34,42.805,6.029,CST-1368DR,4090,4223,10940,01.423,553
2024-05-04T13:19:35,42.805,6.029,CST-1368DR,4090,4222,10937,01.425,553
2024-05-04T13:22:37,42.805,6.029,CST-1368DR,4090,4220,10932,01.426,553
2024-05-04T13:25:38,42.805,6.029,CST-1368DR,4090,4222,10937,01.425,553
2024-05-04T13:28:40,42.805,6.029,CST-1368DR,4090,4221,10936,01.425,553
2024-05-04T13:31:42,42.805,6.029,CST-1368DR,4090,4219,10930,01.427,553
2024-05-04T13:34:43,42.805,6.029,CST-1368DR,4090,4221,10934,01.426,553
2024-05-04T13:37:45,42.805,6.029,CST-1368DR,4090,4222,10937,01.425,553
2024-05-04T13:40:46,42.805,6.029,CST-1368DR,4090,4223,10941,01.423,553
2024-05-04T13:43:48,42.805,6.029,CST-1368DR,4090,4220,10932,01.426,553
2024-05-04T13:46:49,42.805,6.029,CST-1368DR,4090,4219,10928,01.428,553
2024-05-04T13:49:51,42.805,6.029,CST-1368DR,4090,4218,10926,01.429,553
2024-05-04T13:52:53,42.805,6.029,CST-1368DR,4089,4218,10929,01.428,553
2024-05-04T13:55:54,42.805,6.029,CST-1368DR,4090,4219,10929,01.428,553
2024-05-04T13:58:56,42.805,6.029,CST-1368DR,4090,4218,10926,01.429,553
2024-05-04T14:01:59,42.805,6.029,CST-1368DR,4089,4218,10928,01.428,553
2024-05-04T14:05:01,42.805,6.029,CST-1368DR,4090,4218,10926,01.429,553
2024-05-04T14:08:02,42.805,6.029,CST-1368DR,4089,4217,10926,01.429,553
2024-05-04T14:11:04,42.805,6.029,CST-1368DR,4089,4215,10922,01.430,553
2024-05-04T14:14:05,42.805,6.029,CST-1368DR,4089,4217,10927,01.428,553
2024-05-04T14:17:07,42.805,6.029,CST-1368DR,4089,4214,10918,01.432,553
2024-05-04T14:20:09,42.805,6.029,CST-1368DR,4089,4212,10915,01.433,553
2024-05-04T14:23:10,42.805,6.029,CST-1368DR,4089,4212,10914,01.433,553
2024-05-04T14:26:12,42.805,6.029,CST-1368DR,4089,4209,10906,01.436,553
2024-05-04T14:29:13,42.805,6.029,CST-1368DR,4089,4213,10917,01.432,553
2024-05-04T14:32:15,42.805,6.029,CST-1368DR,4089,4210,10909,01.435,553
2024-05-04T14:35:16,42.805,6.029,CST-1368DR,4089,4214,10919,01.431,553
2024-05-04T14:38:18,42.805,6.029,CST-1368DR,4089,4213,10917,01.432,553
2024-05-04T14:41:20,42.805,6.029,CST-1368DR,4089,4214,10920,01.431,553
2024-05-04T14:44:21,42.805,6.029,CST-1368DR,4089,4209,10907,01.436,553
2024-05-04T14:47:23,42.805,6.029,CST-1368DR,4089,4197,10875,01.447,553
2024-05-04T14:50:24,42.805,6.029,CST-1368DR,4089,4204,10893,01.441,553
2024-05-04T14:53:26,42.805,6.029,CST-1368DR,4089,4206,10898,01.439,553
2024-05-04T14:56:28,42.805,6.029,CST-1368DR,4089,4206,10899,01.438,553
2024-05-04T14:59:29,42.805,6.029,CST-1368DR,4089,4203,10891,01.441,553
2024-05-04T15:02:31,42.805,6.029,CST-1368DR,4089,4204,10894,01.440,553
2024-05-04T15:05:32,42.805,6.029,CST-1368DR,4089,4205,10895,01.440,553
2024-05-04T15:08:34,42.805,6.029,CST-1368DR,4089,4207,10900,01.438,553
2024-05-04T15:11:35,42.805,6.029,CST-1368DR,4089,4206,10897,01.439,553
2024-05-04T15:14:37,42.805,6.029,CST-1368DR,4089,4209,10906,01.436,553
2024-05-04T15:17:39,42.805,6.029,CST-1368DR,4089,4206,10899,01.438,553
2024-05-04T15:20:40,42.805,6.029,CST-1368DR,4089,4209,10907,01.436,553
2024-05-04T15:23:42,42.805,6.029,CST-1368DR,4089,4208,10904,01.437,553
2024-05-04T15:26:43,42.805,6.029,CST-1368DR,4089,4207,10901,01.438,553
2024-05-04T15:29:45,42.805,6.029,CST-1368DR,4089,4207,10901,01.438,553
2024-05-04T15:32:46,42.805,6.029,CST-1368DR,4089,4207,10901,01.438,553
2024-05-04T15:35:48,42.805,6.029,CST-1368DR,4089,4207,10901,01.438,553
2024-05-04T15:38:50,42.805,6.029,CST-1368DR,4089,4207,10900,01.438,553
2024-05-04T15:41:51,42.805,6.029,CST-1368DR,4089,4208,10903,01.437,553
2024-05-04T15:44:53,42.805,6.029,CST-1368DR,4089,4208,10904,01.437,553
2024-05-04T15:47:54,42.805,6.029,CST-1368DR,4089,4207,10902,01.437,553
2024-05-04T15:50:56,42.805,6.029,CST-1368DR,4089,4207,10900,01.438,553
2024-05-04T15:53:58,42.805,6.029,CST-1368DR,4089,4206,10899,01.438,553
2024-05-04T15:56:59,42.805,6.029,CST-1368DR,4089,4208,10903,01.437,553
2024-05-04T16:00:01,42.805,6.029,CST-1368DR,4089,4209,10905,01.436,553
2024-05-04T16:03:02,42.805,6.029,CST-1368DR,4089,4205,10897,01.439,553
2024-05-04T16:06:03,42.805,6.029,CST-1368DR,4089,4204,10894,01.440,553
2024-05-04T16:09:05,42.805,6.029,CST-1368DR,4089,4212,10913,01.433,553
2024-05-04T16:12:07,42.805,6.029,CST-1368DR,4089,4206,10899,01.438,553
2024-05-04T16:15:08,42.805,6.029,CST-1368DR,4089,4205,10895,01.440,553
2024-05-04T16:18:10,42.805,6.029,CST-1368DR,4089,4207,10901,01.438,553
2024-05-04T16:21:11,42.805,6.029,CST-1368DR,4089,4206,10899,01.438,553
2024-05-04T16:24:13,42.805,6.029,CST-1368DR,4089,4204,10892,01.441,553
2024-05-04T16:27:15,42.805,6.029,CST-1368DR,4089,4205,10896,01.440,553
2024-05-04T16:30:16,42.805,6.029,CST-1368DR,4089,4204,10894,01.440,553
2024-05-04T16:33:18,42.805,6.029,CST-1368DR,4089,4203,10890,01.442,553
2024-05-04T16:36:19,42.805,6.029,CST-1368DR,4089,4204,10892,01.441,553